Weather History for Thermopolis, WY

Change the Weather History Date:

Saturday, October 20, 2012

  Actual Average (KWRL) Record (KWRL)
Temperature  
Mean Temperature 50 °F 44 °F  
Max Temperature 59 °F 59 °F 80 °F (2003)
Min Temperature 42 °F 29 °F 19 °F (1982)
Degree Days  
Heating Degree Days 14 21  
Month to date heating degree days 347  
Since 1 July heating degree days 604  
Cooling Degree Days 0 0  
Month to date cooling degree days 0  
Year to date cooling degree days 535  
Moisture  
Dew Point 26 °F    
Average Humidity 40    
Maximum Humidity 61    
Minimum Humidity 25    
Precipitation  
Precipitation 0.00 in 0.02 in 0.43 in (2007)
Month to date precipitation 0.53  
Year to date precipitation 6.83  
Sea Level Pressure  
Sea Level Pressure 29.88 in    
Wind  
Wind Speed 18 mph ()    
Max Wind Speed 43 mph    
Max Gust Speed 56 mph    
Visibility 10.0 miles    
Events      
T = Trace of Precipitation, MM = Missing Value Source: Averaged Metar Reports

Daily Weather History Graph

Daily Weather History Graph

Search for Another Location

Airport:

Trip Planner

Search our weather history database for the weather conditions in past years. The results will help you decide how hot, cold, wet, or windy it might be!

Date:

Astronomy

Oct. 20, 2012 Rise Set
Actual Time 7:33 AM MDT 6:20 PM MDT
Civil Twilight 7:04 AM MDT 6:49 PM MDT
Nautical Twilight 6:31 AM MDT 7:23 PM MDT
Astronomical Twilight 5:58 AM MDT 7:56 PM MDT
Moon 1:17 PM MDT (10/20) 11:05 PM MDT (10/20)
Length of Visible Light 11h 45m
Length of Day
10h 46m
Waxing Crescent, 35% of the Moon is Illuminated
Oct 20
Waxing Crescent
Oct 21
First Quarter
Oct 29
Full
Nov 6
Last Quarter
Nov 13
New

Hourly Weather History & Observations

Time (MDT) Temp. Windchill Dew Point Humidity Pressure Visibility Wind Dir Wind Speed Gust Speed Precip Events Conditions
12:15 AM 50.0 °F - 28.4 °F 43% 29.95 in 10.0 mi SW 29.9 mph 40.3 mph N/A   Clear
12:35 AM 50.0 °F - 30.2 °F 47% 29.94 in 10.0 mi SW 32.2 mph 40.3 mph N/A   Clear
12:55 AM 50.0 °F - 30.2 °F 47% 29.93 in 10.0 mi SW 34.5 mph 40.3 mph N/A   Clear
1:15 AM 50.0 °F - 30.2 °F 47% 29.94 in 10.0 mi SW 29.9 mph 39.1 mph N/A   Clear
1:35 AM 51.8 °F - 30.2 °F 44% 29.94 in 10.0 mi WSW 42.6 mph 56.4 mph N/A   Clear
1:55 AM 51.8 °F - 30.2 °F 44% 29.95 in 10.0 mi WSW 31.1 mph 43.7 mph N/A   Clear
2:15 AM 50.0 °F - 30.2 °F 47% 29.97 in 10.0 mi SW 23.0 mph 35.7 mph N/A   Scattered Clouds
2:35 AM 50.0 °F - 30.2 °F 47% 29.96 in 10.0 mi SW 21.9 mph 28.8 mph N/A   Overcast
2:55 AM 51.8 °F - 30.2 °F 44% 29.96 in 10.0 mi SW 20.7 mph 31.1 mph N/A   Overcast
3:15 AM 51.8 °F - 28.4 °F 41% 29.94 in 10.0 mi SSW 26.5 mph 33.4 mph N/A   Overcast
3:35 AM 51.8 °F - 28.4 °F 41% 29.93 in 10.0 mi SSW 28.8 mph 35.7 mph N/A   Overcast
3:55 AM 51.8 °F - 28.4 °F 41% 29.95 in 10.0 mi SW 13.8 mph 26.5 mph N/A   Overcast
4:15 AM 48.2 °F - 30.2 °F 50% 29.94 in 10.0 mi SW 9.2 mph 19.6 mph N/A   Overcast
4:35 AM 48.2 °F - 30.2 °F 50% 29.94 in 10.0 mi SW 10.4 mph - N/A   Mostly Cloudy
4:55 AM 48.2 °F - 30.2 °F 50% 29.92 in 10.0 mi South 11.5 mph 16.1 mph N/A   Scattered Clouds
5:35 AM 46.4 °F 43.5 °F 30.2 °F 53% 29.92 in 10.0 mi SSE 5.8 mph - N/A   Clear
5:55 AM 44.6 °F 39.2 °F 30.2 °F 57% 29.91 in 10.0 mi SE 10.4 mph - N/A   Clear
6:15 AM 42.8 °F 38.0 °F 30.2 °F 61% 29.91 in 10.0 mi SSE 8.1 mph - N/A   Clear
6:35 AM 44.6 °F 39.7 °F 30.2 °F 57% 29.91 in 10.0 mi SSE 9.2 mph - N/A   Clear
6:55 AM 46.4 °F 39.8 °F 28.4 °F 50% 29.90 in 10.0 mi SSE 16.1 mph - N/A   Clear
7:15 AM 44.6 °F 38.4 °F 30.2 °F 57% 29.90 in 10.0 mi SSE 12.7 mph - N/A   Clear
7:35 AM 44.6 °F 38.8 °F 30.2 °F 57% 29.89 in 10.0 mi SE 11.5 mph - N/A   Clear
7:55 AM 44.6 °F 38.8 °F 30.2 °F 57% 29.88 in 10.0 mi SE 11.5 mph - N/A   Clear
8:15 AM 44.6 °F 38.8 °F 30.2 °F 57% 29.89 in 10.0 mi SE 11.5 mph - N/A   Clear
8:35 AM 42.8 °F 35.8 °F 30.2 °F 61% 29.89 in 10.0 mi SE 13.8 mph - N/A   Clear
8:55 AM 44.6 °F 38.4 °F 30.2 °F 57% 29.89 in 10.0 mi SE 12.7 mph - N/A   Clear
9:15 AM 46.4 °F 41.5 °F 28.4 °F 50% 29.89 in 10.0 mi SE 10.4 mph - N/A   Clear
9:35 AM 48.2 °F - 28.4 °F 46% 29.89 in 10.0 mi SE 9.2 mph 17.3 mph N/A   Clear
9:55 AM 51.8 °F - 23.0 °F 33% 29.88 in 10.0 mi SSE 10.4 mph 19.6 mph N/A   Clear
10:15 AM 53.6 °F - 23.0 °F 30% 29.88 in 10.0 mi SSE 11.5 mph 18.4 mph N/A   Clear
10:35 AM 53.6 °F - 23.0 °F 30% 29.87 in 10.0 mi ESE 13.8 mph - N/A   Clear
10:55 AM 53.6 °F - 23.0 °F 30% 29.88 in 10.0 mi SE 8.1 mph - N/A   Clear
11:15 AM 53.6 °F - 23.0 °F 30% 29.85 in 10.0 mi SE 17.3 mph 25.3 mph N/A   Clear
11:35 AM 51.8 °F - 21.2 °F 30% 29.86 in 10.0 mi ESE 9.2 mph 27.6 mph N/A   Clear
11:55 AM 53.6 °F - 21.2 °F 28% 29.86 in 10.0 mi SSE 9.2 mph - N/A   Clear
12:15 PM 53.6 °F - 21.2 °F 28% 29.86 in 10.0 mi South 15.0 mph 28.8 mph N/A   Clear
12:35 PM 55.4 °F - 21.2 °F 26% 29.85 in 10.0 mi South 11.5 mph 20.7 mph N/A   Clear
12:55 PM 57.2 °F - 21.2 °F 25% 29.84 in 10.0 mi SE 10.4 mph - N/A   Clear
1:15 PM 57.2 °F - 21.2 °F 25% 29.84 in 10.0 mi SSE 15.0 mph 20.7 mph N/A   Clear
1:35 PM 57.2 °F - 21.2 °F 25% 29.83 in 10.0 mi South 8.1 mph 18.4 mph N/A   Clear
1:55 PM 59.0 °F - 23.0 °F 25% 29.83 in 10.0 mi SSE 4.6 mph - N/A   Clear
2:15 PM 57.2 °F - 23.0 °F 27% 29.83 in 10.0 mi South 5.8 mph 18.4 mph N/A   Scattered Clouds
2:55 PM 59.0 °F - 24.8 °F 27% 29.82 in 10.0 mi South 16.1 mph 26.5 mph N/A   Clear
3:15 PM 59.0 °F - 24.8 °F 27% 29.83 in 10.0 mi SSW 10.4 mph 27.6 mph N/A   Clear
3:35 PM 59.0 °F - 24.8 °F 27% 29.82 in 10.0 mi South 15.0 mph 21.9 mph N/A   Clear
4:15 PM 59.0 °F - 24.8 °F 27% 29.83 in 10.0 mi SSW 16.1 mph 21.9 mph N/A   Clear
4:35 PM 59.0 °F - 23.0 °F 25% 29.82 in 10.0 mi SSW 12.7 mph 18.4 mph N/A   Clear
5:15 PM 57.2 °F - 23.0 °F 27% 29.83 in 10.0 mi WSW 16.1 mph 23.0 mph N/A   Clear
5:35 PM 55.4 °F - 23.0 °F 29% 29.83 in 10.0 mi SW 15.0 mph 19.6 mph N/A   Clear
6:15 PM 51.8 °F - 24.8 °F 35% 29.84 in 10.0 mi West 13.8 mph - N/A   Clear
6:35 PM 51.8 °F - 26.6 °F 38% 29.84 in 10.0 mi West 16.1 mph 19.6 mph N/A   Clear
6:55 PM 50.0 °F - 26.6 °F 40% 29.85 in 10.0 mi West 15.0 mph - N/A   Clear
7:15 PM 50.0 °F - 26.6 °F 40% 29.86 in 10.0 mi West 15.0 mph - N/A   Clear
7:35 PM 50.0 °F - 24.8 °F 37% 29.87 in 10.0 mi West 18.4 mph 24.2 mph N/A   Clear
7:55 PM 50.0 °F - 23.0 °F 35% 29.86 in 10.0 mi West 15.0 mph 20.7 mph N/A   Clear
8:15 PM 50.0 °F - 21.2 °F 32% 29.86 in 10.0 mi West 16.1 mph 23.0 mph N/A   Clear
8:35 PM 50.0 °F - 21.2 °F 32% 29.86 in 10.0 mi West 15.0 mph - N/A   Clear
8:55 PM 48.2 °F - 23.0 °F 37% 29.86 in 10.0 mi West 18.4 mph 23.0 mph N/A   Clear
9:15 PM 48.2 °F - 23.0 °F 37% 29.86 in 10.0 mi West 15.0 mph - N/A   Clear
9:35 PM 48.2 °F - 23.0 °F 37% 29.87 in 10.0 mi West 15.0 mph - N/A   Scattered Clouds
10:35 PM 46.4 °F 40.7 °F 23.0 °F 40% 29.87 in 10.0 mi WNW 12.7 mph - N/A   Scattered Clouds
10:55 PM 46.4 °F 40.7 °F 26.6 °F 46% 29.88 in 10.0 mi WNW 12.7 mph - N/A   Scattered Clouds
11:55 PM 44.6 °F 36.4 °F 26.6 °F 49% 29.87 in 10.0 mi WNW 20.7 mph - N/A   Clear